Temp
20 20 20 19 19 18 18 17 18 18 18 18 18 18 18 18 18 18 18 18 17 17 17 17 17 16 16 16 16 17 17 17 17 17 16 16 16 16 16 16 16 16 16
21 20 20 19 19 18 18 17 18 18 18 18 18 18 18 18 18 18 18 17 17 17 16 16 16 16 16 16 16 16 16 16 16 16 16 16 16 16 16 16 16 15 15
20 20 19 20 19 19 18 18 18 18 18 18 18 18 18 18 18 18 18 17 17 17 16 16 16 16 16 15 15 15 15 16 16 16 16 15 16 16 16 16 15 15 15
20 20 20 20 20 19 18 18 18 18 18 18 18 19 18 18 18 18 17 17 16 16 16 16 16 16 15 15 15 15 15 15 15 15 16 16 15 16 16 15 15 15 14
19 20 20 19 19 19 18 18 18 18 19 19 18 19 18 18 18 17 17 17 16 16 16 16 16 16 16 16 15 15 15 15 15 15 15 15 15 15 15 15 15 15 14
19 19 20 19 19 19 18 18 18 18 18 18 18 18 18 17 17 17 17 17 16 16 16 16 17 16 16 16 16 16 16 16 16 16 15 15 15 15 15 15 15 15 15
19 19 19 19 19 19 19 18 18 18 18 18 17 18 17 17 17 17 17 16 16 16 16 16 16 16 16 16 16 16 16 16 15 15 15 15 15 15 15 15 14 14 14
18 19 19 19 19 19 18 18 18 18 18 18 18 17 17 17 17 17 17 17 16 16 16 16 16 16 16 16 16 16 16 16 15 15 15 14 14 14 14 14 14 14 13
18 18 18 18 18 18 18 18 18 18 18 18 17 17 17 17 17 17 17 17 16 16 16 16 16 16 16 16 16 16 16 16 15 15 14 14 14 13 13 13 13 13 12
17 17 17 17 17 17 17 17 17 17 17 17 17 17 16 16 17 17 17 17 16 16 16 16 16 16 15 15 15 15 15 15 15 14 14 14 13 13 13 13 12 12 13
17 17 17 17 17 16 16 16 16 16 16 17 17 16 16 16 17 17 17 17 16 16 16 16 16 16 16 15 15 15 15 14 14 14 13 13 13 13 13 13 13 12 12
18 17 17 16 16 16 15 15 14 14 16 16 16 16 16 16 16 17 17 16 16 16 16 16 16 15 15 15 15 14 14 14 13 13 12 10 9 12 13 13 13 13 13
16 16 17 16 16 15 13 13 14 13 15 16 15 15 15 15 16 16 16 16 16 16 16 15 15 15 15 14 14 14 14 14 13 12 11 11 9 10 11 11 11 12 12
16 16 16 15 15 14 13 14 13 13 15 15 15 14 15 15 15 16 15 16 16 16 15 15 15 15 14 14 14 14 14 13 13 12 12 12 12 11 11 10 11 11 12
19 17 16 15 14 13 13 13 13 13 13 14 14 14 14 14 14 15 15 15 15 15 15 15 14 14 14 14 13 13 13 13 12 12 11 10 10 10 10 9 9 10 11
20 19 16 15 14 13 13 12 12 13 13 13 13 14 14 14 14 14 15 15 14 15 14 14 14 13 13 13 13 12 12 12 11 10 10 9 9 9 9 9 9 9 10
21 16 15 14 14 13 13 13 13 12 13 13 12 13 13 13 13 13 14 14 14 14 13 14 13 13 13 12 12 11 11 10 9 9 9 9 9 9 9 9 9 9 8
18 19 17 14 14 13 13 13 12 12 12 12 12 12 12 12 12 12 13 13 13 13 13 13 13 13 12 12 12 11 10 9 9 8 9 9 8 8 9 9 9 9 8
19 18 17 16 14 13 13 13 13 12 11 12 12 12 12 12 12 12 12 13 12 13 13 13 13 12 12 11 11 10 9 8 8 8 8 8 8 8 8 8 8 8 7
19 18 17 17 15 14 13 13 12 12 11 11 11 11 11 11 11 11 11 12 12 11 12 12 12 12 11 11 10 9 8 7 7 8 8 8 8 7 7 7 6 6 6
18 17 17 16 16 14 13 13 12 12 11 11 11 10 11 11 11 11 11 11 11 12 11 11 11 11 11 10 10 8 7 7 6 7 7 7 7 7 6 6 6 6 5
19 18 16 16 15 15 13 13 12 12 11 11 10 10 10 10 11 10 10 11 11 11 12 11 11 12 11 10 9 9 6 5 5 5 5 5 5 6 6 6 5 5 5
18 17 17 17 14 12 12 12 12 12 11 10 9 9 10 9 10 10 10 10 10 10 11 11 10 10 11 10 10 9 7 5 4 4 4 4 4 5 5 5 5 4 4
17 17 15 13 13 11 11 11 12 13 12 11 9 9 9 9 9 10 9 9 9 10 9 10 10 9 10 10 9 9 9 8 5 1 3 3 3 3 4 4 4 4 3
17 16 15 12 11 11 11 11 11 11 12 11 10 9 9 9 9 9 9 9 9 9 10 9 9 9 9 9 9 9 9 8 8 7 1 2 2 2 3 3 3 2 2
15 15 15 13 11 10 10 10 10 11 11 11 10 9 9 8 8 7 7 8 8 9 9 9 8 9 8 8 8 8 8 8 7 7 5 1 -1 0 2 2 0 1 1
Height
1504 1508 1511 1513 1516 1520 1524 1528 1532 1533 1534 1536 1538 1539 1539 1540 1542 1543 1543 1544 1545 1545 1546 1546 1547 1548 1549 1549 1551 1550 1551 1550 1551 1551 1552 1552 1552 1553 1553 1553 1552 1554 1555
1501 1505 1509 1513 1516 1520 1524 1527 1531 1533 1534 1535 1537 1538 1540 1540 1541 1542 1543 1543 1544 1544 1545 1545 1546 1547 1548 1549 1550 1550 1551 1550 1550 1551 1552 1552 1553 1553 1553 1553 1554 1555 1555
1501 1503 1507 1511 1515 1518 1523 1526 1530 1532 1534 1536 1536 1538 1539 1540 1541 1541 1542 1543 1543 1544 1544 1545 1546 1546 1547 1548 1549 1550 1550 1550 1550 1551 1551 1552 1553 1553 1553 1554 1554 1554 1556
1500 1502 1506 1511 1514 1517 1520 1524 1528 1530 1532 1534 1535 1536 1538 1539 1540 1541 1542 1543 1544 1544 1544 1544 1544 1545 1546 1547 1548 1548 1549 1550 1550 1550 1551 1551 1553 1553 1553 1553 1554 1555 1555
1501 1503 1508 1512 1515 1517 1520 1523 1525 1528 1531 1533 1534 1535 1536 1538 1538 1540 1542 1542 1543 1543 1544 1544 1544 1545 1544 1546 1547 1547 1548 1549 1549 1550 1549 1550 1551 1552 1553 1553 1553 1554 1554
1500 1505 1507 1510 1514 1517 1519 1522 1524 1526 1529 1531 1533 1534 1535 1537 1538 1539 1541 1542 1543 1543 1543 1544 1544 1544 1544 1544 1546 1547 1547 1548 1548 1549 1549 1549 1550 1550 1551 1552 1553 1554 1554
1500 1504 1506 1509 1511 1514 1516 1519 1522 1526 1528 1530 1533 1533 1535 1535 1537 1538 1539 1541 1543 1544 1544 1544 1544 1544 1544 1544 1544 1545 1546 1546 1547 1548 1549 1549 1549 1550 1551 1551 1552 1552 1553
1498 1502 1505 1508 1510 1514 1516 1518 1520 1522 1525 1527 1530 1532 1533 1534 1535 1536 1537 1538 1541 1543 1544 1544 1544 1544 1544 1544 1544 1544 1544 1544 1545 1547 1548 1548 1549 1549 1550 1550 1550 1551 1552
1497 1499 1502 1505 1509 1513 1516 1517 1519 1520 1521 1524 1527 1529 1532 1532 1534 1534 1535 1537 1538 1539 1542 1543 1543 1543 1543 1543 1543 1543 1542 1543 1544 1545 1546 1547 1548 1548 1548 1548 1549 1550 1550
1495 1497 1499 1502 1504 1507 1512 1515 1516 1519 1521 1522 1524 1527 1529 1530 1531 1533 1533 1535 1537 1538 1539 1540 1541 1542 1543 1544 1543 1543 1542 1542 1542 1543 1544 1545 1547 1547 1546 1546 1547 1548 1549
1492 1495 1497 1500 1501 1504 1508 1512 1513 1515 1518 1520 1522 1523 1525 1527 1529 1530 1532 1533 1535 1536 1537 1538 1540 1540 1541 1542 1543 1543 1543 1542 1542 1542 1542 1544 1545 1544 1544 1544 1544 1545 1547
1486 1488 1492 1495 1498 1501 1504 1507 1510 1512 1514 1517 1519 1521 1523 1525 1527 1528 1529 1531 1531 1534 1536 1537 1538 1539 1540 1540 1541 1542 1543 1543 1543 1542 1543 1543 1542 1542 1542 1543 1542 1542 1543
1485 1486 1486 1489 1493 1497 1499 1501 1506 1507 1510 1515 1517 1520 1522 1524 1524 1525 1526 1527 1529 1531 1533 1536 1536 1538 1539 1540 1540 1540 1541 1542 1543 1544 1543 1542 1543 1542 1542 1542 1541 1541 1541
1478 1481 1484 1486 1488 1491 1493 1497 1500 1503 1505 1510 1514 1517 1519 1521 1523 1524 1525 1526 1527 1528 1531 1533 1535 1536 1537 1538 1539 1540 1540 1541 1542 1543 1543 1543 1544 1543 1543 1542 1541 1541 1539
1471 1473 1476 1481 1485 1486 1490 1491 1495 1499 1503 1505 1508 1512 1516 1519 1522 1523 1523 1525 1525 1527 1528 1531 1533 1534 1535 1537 1538 1539 1540 1540 1540 1541 1543 1543 1543 1542 1541 1540 1540 1539 1538
1462 1463 1467 1472 1477 1480 1484 1486 1491 1496 1499 1502 1505 1508 1510 1513 1517 1520 1522 1523 1524 1524 1526 1528 1530 1532 1534 1535 1536 1538 1539 1540 1540 1540 1541 1542 1541 1540 1540 1538 1538 1537 1536
1455 1457 1459 1463 1469 1473 1476 1480 1484 1489 1494 1498 1500 1503 1506 1509 1513 1516 1518 1520 1521 1523 1524 1525 1527 1529 1531 1532 1534 1535 1537 1538 1539 1540 1540 1540 1540 1539 1538 1537 1536 1535 1535
1449 1448 1450 1453 1459 1465 1468 1473 1477 1482 1488 1492 1496 1498 1502 1506 1510 1512 1515 1517 1518 1520 1521 1523 1524 1526 1529 1530 1531 1533 1535 1536 1538 1539 1539 1539 1539 1538 1537 1536 1535 1534 1533
1442 1443 1443 1446 1450 1456 1461 1467 1471 1476 1481 1485 1489 1492 1496 1500 1505 1508 1511 1512 1514 1516 1517 1520 1521 1523 1525 1527 1528 1531 1533 1535 1536 1537 1538 1538 1537 1537 1536 1535 1533 1532 1531
1435 1434 1435 1436 1441 1447 1452 1456 1463 1468 1472 1477 1481 1485 1490 1494 1498 1503 1506 1508 1510 1513 1514 1516 1519 1521 1522 1524 1526 1528 1531 1533 1535 1535 1536 1536 1535 1535 1535 1533 1532 1530 1529
1429 1428 1427 1426 1429 1435 1438 1443 1449 1453 1458 1465 1470 1478 1482 1487 1493 1497 1501 1503 1505 1509 1512 1514 1515 1518 1518 1521 1523 1526 1528 1531 1532 1534 1534 1533 1533 1533 1533 1532 1531 1529 1527
1418 1418 1420 1419 1419 1423 1430 1434 1438 1444 1451 1459 1465 1472 1477 1481 1485 1491 1495 1498 1501 1503 1505 1510 1512 1512 1514 1516 1519 1522 1526 1530 1530 1531 1532 1531 1531 1531 1530 1530 1529 1527 1525
1413 1410 1409 1409 1411 1415 1422 1427 1432 1439 1443 1449 1456 1461 1466 1473 1479 1484 1489 1493 1496 1500 1502 1503 1507 1510 1510 1512 1515 1518 1522 1525 1526 1528 1529 1529 1529 1529 1528 1527 1526 1525 1523
1406 1404 1406 1402 1403 1406 1414 1417 1418 1421 1427 1435 1444 1451 1459 1466 1472 1477 1482 1487 1492 1495 1498 1500 1501 1505 1508 1508 1511 1513 1515 1520 1523 1526 1526 1526 1527 1527 1526 1525 1523 1522 1521
1401 1400 1396 1403 1401 1402 1401 1408 1412 1416 1424 1430 1436 1443 1451 1457 1463 1469 1474 1480 1483 1489 1492 1495 1498 1500 1503 1505 1507 1510 1513 1516 1519 1520 1521 1523 1525 1524 1524 1523 1522 1520 1519
1392 1391 1390 1389 1392 1394 1395 1396 1401 1408 1411 1415 1425 1433 1442 1448 1455 1462 1469 1474 1480 1480 1486 1489 1494 1496 1500 1501 1503 1507 1510 1513 1515 1516 1517 1520 1523 1522 1521 1521 1520 1519 1518
Wind_Speed
34 32 29 27 27 26 25 23 21 19 19 19 20 18 17 15 13 11 10 9 8 7 6 6 6 6 5 4 4 3 3 3 3 4 5 5 6 6 6 6 7 8 7
36 35 32 28 26 25 24 23 22 19 19 19 18 17 16 14 12 11 10 10 9 8 7 6 5 5 4 4 3 4 3 3 3 3 4 4 4 4 3 4 6 6 6
36 38 33 30 28 26 25 24 23 21 20 19 18 17 15 14 12 10 9 8 7 6 7 6 5 5 4 3 2 2 2 2 2 1 3 4 2 2 2 4 5 5 6
37 39 34 30 28 27 26 25 24 22 21 19 18 17 15 14 12 11 9 8 7 6 6 6 6 5 5 4 3 3 3 3 3 2 1 2 2 1 4 5 6 6 6
36 36 32 28 26 26 26 25 25 24 22 20 18 16 15 13 12 11 9 7 7 6 6 6 6 5 4 3 2 2 2 3 3 4 3 2 3 1 2 4 5 4 3
34 33 32 30 27 26 26 26 25 24 22 20 19 18 16 15 13 12 10 9 8 7 5 4 3 3 2 3 2 2 2 2 2 3 4 4 4 5 5 5 5 3 3
31 33 31 30 29 28 29 28 26 24 22 21 20 19 18 17 15 13 11 9 8 7 6 4 3 3 3 3 3 3 4 4 3 3 3 5 5 5 6 6 7 7 6
31 34 32 30 29 29 29 29 27 25 24 22 21 20 19 17 15 13 11 10 9 7 5 4 4 4 3 3 3 3 3 3 4 4 4 4 4 4 5 6 6 6 5
32 34 33 32 30 29 30 29 28 28 26 24 22 20 18 18 16 13 11 10 10 8 6 5 4 4 3 2 2 1 1 2 2 2 3 4 5 4 5 6 6 5 6
32 34 34 33 33 33 31 30 30 28 27 24 23 21 20 19 17 14 13 11 10 8 6 6 5 4 2 1 0 1 1 1 1 1 1 2 4 6 7 8 9 10 10
32 34 34 34 34 34 33 32 32 31 28 26 24 23 23 22 19 17 15 12 10 8 7 7 5 4 2 1 1 1 2 3 4 4 4 3 1 5 9 10 11 11 12
34 37 36 36 36 35 34 35 32 31 31 28 26 26 24 22 20 19 16 14 11 9 8 7 6 4 2 2 2 2 2 3 4 5 7 9 4 3 3 5 7 9 10
35 37 39 39 37 36 37 37 35 36 32 29 27 26 25 24 24 21 18 15 12 11 11 9 7 5 4 3 2 2 2 2 3 6 7 3 3 2 6 6 6 5 3
36 39 40 40 38 39 39 38 39 38 34 31 29 28 27 26 23 21 18 16 15 14 13 11 9 7 5 3 2 1 2 2 4 4 5 2 1 2 3 4 5 6 7
35 39 41 42 41 42 40 40 38 37 35 32 31 30 28 26 23 21 19 17 16 15 14 12 9 7 6 5 3 3 3 3 3 4 4 3 3 4 5 6 7 6 9
35 37 41 44 43 43 42 41 40 39 35 33 33 32 31 27 25 23 20 18 17 16 15 13 11 9 8 6 5 5 5 5 5 4 4 2 3 5 6 7 8 10 12
38 39 40 45 45 46 45 43 42 41 38 36 35 34 32 29 27 24 22 20 18 17 16 14 13 11 9 7 6 6 6 5 5 5 3 1 3 5 6 8 9 10 9
37 40 41 42 46 46 48 44 44 43 40 38 37 36 33 29 27 26 23 21 20 19 17 16 14 12 11 10 9 8 7 6 5 3 1 0 1 4 5 6 6 8 9
36 41 43 42 44 48 48 47 44 44 41 41 40 39 36 32 30 28 26 23 22 21 20 18 16 14 13 12 11 10 9 8 6 3 2 1 1 3 4 6 8 9 10
36 41 44 45 44 45 49 49 46 44 44 45 44 42 37 34 32 30 27 25 23 22 22 20 18 17 15 14 14 12 11 9 7 5 3 1 1 2 4 5 7 8 9
38 42 45 48 48 46 52 55 51 50 50 50 47 42 40 36 33 32 30 28 25 23 21 20 20 18 18 17 16 14 12 10 8 5 4 1 1 3 3 4 6 7 9
36 40 44 48 49 49 50 56 56 52 51 50 46 43 40 38 36 34 31 29 27 26 25 22 22 23 21 20 17 14 9 10 10 7 5 3 1 3 4 4 7 9 10
34 38 42 46 50 49 49 55 58 52 52 51 48 46 44 40 37 35 33 30 28 25 25 25 23 21 21 22 19 11 7 6 13 10 7 5 3 3 4 5 7 9 11
31 35 40 45 48 47 49 54 62 62 59 56 54 50 45 41 39 37 34 31 28 30 25 25 24 22 20 19 20 19 13 8 7 8 10 8 5 4 3 6 8 9 10
23 26 32 40 46 46 48 54 59 62 57 55 55 51 47 44 42 39 37 34 31 27 27 26 24 22 21 18 17 16 16 15 13 8 8 10 7 5 2 5 8 9 11
23 25 28 36 44 46 50 52 57 62 62 59 56 55 50 47 44 40 37 34 32 33 33 27 24 21 20 18 16 13 13 14 14 11 8 11 7 5 3 2 6 9 10
Wind_Direction
183 187 183 182 179 177 178 178 179 178 174 170 169 169 167 168 168 166 161 159 158 153 144 146 142 141 141 142 153 129 120 115 106 98 103 114 104 90 95 101 88 78 82
182 186 185 184 182 181 184 184 185 187 182 177 175 173 171 170 167 163 165 166 161 163 167 168 168 162 164 163 150 142 138 130 133 131 120 131 119 98 98 114 105 94 91
184 182 184 185 184 185 188 190 192 192 188 184 178 177 175 175 175 175 177 181 184 184 185 190 193 188 188 188 176 168 163 148 150 146 140 152 149 64 102 111 109 96 87
184 182 184 185 186 187 191 193 195 195 192 189 185 183 182 180 180 185 189 196 202 202 203 202 204 200 196 199 197 205 212 210 198 204 188 190 219 35 123 134 120 105 95
186 185 184 186 188 189 191 193 194 195 194 193 193 190 190 190 190 195 201 211 215 212 204 196 195 195 179 182 193 206 227 235 225 222 229 226 223 204 151 171 156 139 114
187 188 187 189 191 192 193 195 195 195 195 195 195 195 195 197 200 201 209 215 214 210 199 196 194 193 181 168 187 210 225 249 251 241 239 237 228 208 201 201 220 227 210
186 190 192 194 196 197 197 198 199 198 197 199 201 200 201 200 204 206 207 207 204 198 194 193 210 228 242 244 247 250 254 257 254 232 228 240 244 230 225 223 222 221 221
190 191 196 198 200 202 201 202 202 201 202 204 206 207 207 208 209 207 202 197 193 193 200 215 232 244 251 262 255 256 261 263 258 248 232 242 246 228 229 223 228 237 242
194 196 198 200 202 205 207 206 205 205 206 206 210 210 212 210 209 205 202 194 191 194 209 225 226 229 222 208 220 223 262 265 264 241 232 243 264 243 231 228 231 234 230
201 203 203 203 204 206 208 209 210 210 211 210 211 213 212 210 208 206 201 198 200 207 209 216 210 206 216 196 307 17 70 33 26 42 146 230 259 263 250 245 239 236 252
209 209 209 209 210 210 210 211 214 213 213 212 213 212 211 209 208 204 205 202 206 213 211 205 204 196 193 191 38 18 10 49 66 62 70 64 238 252 261 264 259 252 249
215 213 213 215 215 214 213 213 213 215 215 214 213 213 211 210 208 208 206 206 209 212 210 205 203 203 195 163 141 110 77 54 68 76 76 79 96 349 328 292 280 274 266
224 220 217 218 218 217 216 214 211 217 217 214 215 216 214 210 208 207 208 206 209 207 208 207 203 202 189 167 140 107 85 79 81 93 114 145 93 1 351 2 17 3 327
231 228 224 220 219 219 223 216 220 218 215 214 216 215 216 215 213 211 209 208 206 205 204 202 202 196 184 179 174 164 150 133 123 129 148 161 125 71 40 35 22 13 349
237 233 231 227 221 223 223 223 219 219 220 217 215 215 216 216 217 215 212 210 205 203 199 198 198 194 190 190 188 182 174 161 151 141 143 107 65 47 41 31 27 14 359
242 238 232 230 227 225 221 224 222 224 223 222 218 217 216 214 218 221 219 214 208 203 200 197 196 195 194 190 183 169 166 159 149 139 128 81 31 19 5 357 354 355 353
247 239 236 232 227 225 224 226 225 227 226 223 219 218 217 216 217 220 220 216 209 206 201 197 197 197 195 191 183 173 168 158 146 139 128 81 354 346 336 339 344 349 357
246 245 240 236 232 228 226 227 229 228 228 224 222 219 217 219 219 220 219 217 212 207 203 200 198 199 195 189 187 182 176 167 160 154 169 321 357 341 340 343 343 351 357
249 247 243 241 235 230 225 227 231 230 228 226 224 221 219 219 218 220 220 217 212 208 204 202 201 199 197 191 185 180 179 175 175 175 171 201 329 339 349 353 356 360 357
250 247 247 244 238 232 227 226 227 228 228 227 225 222 220 219 219 220 219 219 216 209 205 202 201 197 195 192 182 179 180 181 185 193 215 216 314 343 359 359 2 356 353
252 248 247 245 241 230 223 223 223 223 222 221 221 220 221 220 221 219 219 217 213 213 210 204 202 200 191 189 183 175 181 191 197 211 202 208 326 330 359 354 352 355 354
255 252 248 247 243 237 227 224 224 222 222 223 220 219 220 219 220 220 219 218 215 210 208 207 207 201 194 189 189 184 184 207 213 208 200 190 265 309 323 353 358 357 356
263 254 248 247 244 238 229 225 222 222 220 216 216 218 217 217 218 218 218 217 215 212 212 206 205 206 202 195 196 186 177 196 192 201 199 203 232 270 310 345 5 7 360
287 272 253 243 243 239 229 226 224 221 215 215 215 214 215 216 216 216 217 214 213 215 212 210 205 205 204 203 207 213 210 203 178 175 206 208 219 252 298 340 3 9 7
293 280 260 241 245 241 233 228 228 222 220 219 216 215 214 214 214 214 213 210 205 205 215 211 208 206 208 209 210 216 216 214 214 192 178 196 211 242 271 338 7 14 10
296 275 259 245 245 243 234 228 230 226 219 218 216 212 212 212 211 210 209 207 205 211 210 206 205 203 207 204 204 213 208 202 209 198 181 174 184 219 240 326 20 14 10